Weather History for Gallup, NM

Change the Weather History Date:

Saturday, August 17, 2013

  Actual Average Record
Temperature  
Mean Temperature 70 °F -  
Max Temperature 88 °F 82 °F 93 °F (1986)
Min Temperature 53 °F 50 °F 40 °F (1987)
Cooling Degree Days 4    
Growing Degree Days 20 (Base 50)    
Moisture  
Dew Point 45 °F    
Average Humidity 41    
Maximum Humidity 77    
Minimum Humidity 17    
Precipitation  
Precipitation 0.00 in - - ()
Sea Level Pressure  
Sea Level Pressure 29.88 in    
Wind  
Wind Speed 5 mph (West)    
Max Wind Speed 16 mph    
Max Gust Speed 24 mph    
Visibility 10 miles    
Events Rain , Thunderstorm    
Averages and records for this station are not official NWS values.
T = Trace of Precipitation, MM = Missing Value Source: NWS Daily Summary

Daily Weather History Graph

Daily Weather History Graph

Search for Another Location

Airport:

Trip Planner

Search our weather history database for the weather conditions in past years. The results will help you decide how hot, cold, wet, or windy it might be!

Date:

Astronomy

Aug. 17, 2013 Rise Set
Actual Time 6:36 AM MDT 8:01 PM MDT
Civil Twilight 6:09 AM MDT 8:28 PM MDT
Nautical Twilight 5:37 AM MDT 9:00 PM MDT
Astronomical Twilight 5:03 AM MDT 9:33 PM MDT
Moon 5:16 PM MDT (8/17) 2:46 AM MDT (8/17)
Length of Visible Light 14h 19m
Length of Day
13h 25m
Waxing Gibbous, 85% of the Moon is Illuminated
Aug 17
Waxing Gibbous
Aug 20
Full
Aug 28
Last Quarter
Sep 5
New
Sep 12
First Quarter

Hourly Weather History & Observations

Time (MDT) Temp. Dew Point Humidity Pressure Visibility Wind Dir Wind Speed Gust Speed Precip Events Conditions
12:53 AM 66.0 °F 46.0 °F 48% 29.77 in 10.0 mi SSE 4.6 mph - N/A   Clear
1:53 AM 64.0 °F 46.0 °F 52% 29.79 in 10.0 mi Calm Calm - N/A   Clear
2:53 AM 62.1 °F 46.0 °F 56% 29.79 in 10.0 mi Calm Calm - N/A   Clear
3:53 AM 57.0 °F 45.0 °F 64% 29.87 in 10.0 mi Calm Calm - N/A   Clear
4:53 AM 53.1 °F 42.1 °F 66% 29.87 in 10.0 mi East 3.5 mph - N/A   Clear
5:53 AM 54.0 °F 44.1 °F 69% 29.87 in 10.0 mi Calm Calm - N/A   Clear
6:53 AM 53.1 °F 46.0 °F 77% 29.90 in 10.0 mi Calm Calm - N/A   Clear
7:53 AM 61.0 °F 48.0 °F 62% 29.87 in 10.0 mi Calm Calm - N/A   Clear
8:53 AM 71.1 °F 48.9 °F 45% 29.86 in 10.0 mi Calm Calm - N/A   Clear
9:53 AM 77.0 °F 48.0 °F 36% 29.82 in 10.0 mi WSW 5.8 mph - N/A   Clear
10:53 AM 81.0 °F 46.9 °F 30% 29.78 in 10.0 mi West 9.2 mph - N/A   Clear
11:53 AM 84.0 °F 46.0 °F 26% 29.77 in 10.0 mi WNW 6.9 mph - N/A   Clear
12:53 PM 86.0 °F 41.0 °F 20% 29.73 in 10.0 mi West 3.5 mph - N/A   Clear
1:12 PM 84.2 °F 41.0 °F 22% 30.29 in 10.0 mi Calm Calm - N/A Thunderstorm Partly Cloudy
1:49 PM 80.6 °F 44.6 °F 28% 30.28 in 10.0 mi NNW 16.1 mph 24.2 mph N/A Thunderstorm Partly Cloudy
1:53 PM 81.0 °F 45.0 °F 28% 29.76 in 10.0 mi NNW 15.0 mph 24.2 mph N/A Thunderstorm Partly Cloudy
2:10 PM 82.4 °F 42.8 °F 25% 30.28 in 10.0 mi NW 13.8 mph - N/A   Clear
2:53 PM 82.0 °F 42.1 °F 24% 29.76 in 10.0 mi NNW 15.0 mph - N/A   Clear
3:53 PM 84.9 °F 36.0 °F 17% 29.75 in 10.0 mi NW 10.4 mph 18.4 mph N/A   Clear
4:53 PM 82.0 °F 39.9 °F 22% 29.79 in 10.0 mi NW 15.0 mph 23.0 mph N/A   Clear
5:53 PM 81.0 °F 39.9 °F 23% 29.78 in 10.0 mi North 11.5 mph - N/A   Clear
6:45 PM 78.8 °F 44.6 °F 30% 30.26 in 10.0 mi West 11.5 mph - N/A   Clear
6:53 PM 77.0 °F 43.0 °F 30% 29.85 in 10.0 mi WSW 10.4 mph - N/A   Clear
7:53 PM 72.0 °F 48.9 °F 44% 29.87 in 10.0 mi West 13.8 mph - 0.00 in Rain Light Rain
8:53 PM 72.0 °F 46.0 °F 40% 29.82 in 10.0 mi SSW 12.7 mph - 0.00 in   Overcast
9:53 PM 68.0 °F 48.9 °F 50% 29.84 in 10.0 mi SSW 15.0 mph - N/A   Clear
10:53 PM 66.0 °F 50.0 °F 56% 29.84 in 10.0 mi SW 5.8 mph - N/A   Clear
11:53 PM 64.9 °F 50.0 °F 58% 29.80 in 10.0 mi West 3.5 mph - N/A   Clear